Flag for U.S.A. Weather past 2 weeks in Barnstable, Massachusetts, U.S.A.

Now
25 °F

Heavy snow. Ice fog.


Feels Like: 7 °F
Forecast: 22 / 32 °F
Wind: 33 mph from North

Location: Barnstable Municipal-Boardman Airport

Current Time: Jan 27, 2015 at 12:37:52 PM

Latest Report: Jan 27, 2015 at 11:56 AM


Visibility: 0 mi

Pressure: 29.21 "Hg

Humidity: 92%

Dew point: 23 °F

Location of BarnstableLocation

Historic Weather in Barnstable — Graph

°F

Barnstable temperature yesterday

Maximum temperature yesterday: 32 °F (at 10:56 AM)
Minimum temperature yesterday: 25 °F (at 1:56 AM)
Average temperature yesterday: 29 °F

Past Weeks' High & Low Weather Summary

 TemperatureHumidityPressure
High48 °F (Jan 18, 1:56 PM)100% (Jan 12, 3:56 PM)30.61 "Hg (Jan 12, 3:56 PM)
Low12 °F (Jan 17, 5:56 AM)33% (Jan 16, 8:56 PM)29.00 "Hg (Jan 24, 4:59 PM)
Average32 °F74%29.96 "Hg
* Reported Jan 12 10:56 AM — Jan 27 10:56 AM, Barnstable, Weather by CustomWeather, © 2014

Note: Actual official high and low records may vary slightly from our data, if they occured in-between our weather recording intervals... More about our weather records

Advertising

Barnstable weather history for previous 24 hours

 ConditionsComfort  
Time TempWeatherWind HumidityBarometerVisibility
10:56 AM
Jan 27
25 °FHeavy snow. Ice fog.38 mphN/A29.21 "Hg0 mi
9:56 AM25 °FHeavy snow. Ice fog.43 mphN/A29.26 "Hg0 mi
9:03 AM25 °FHeavy snow. Ice fog.35 mph96%29.26 "Hg0 mi
8:56 AM25 °FHeavy snow. Ice fog.37 mph96%29.27 "Hg0 mi
7:56 AM26 °FHeavy snow. Ice fog.33 mph96%29.25 "Hg0 mi
6:56 AM28 °FHeavy snow. Ice fog.37 mph96%29.26 "Hg0 mi
5:56 AM29 °FIce fog.38 mph96%29.28 "Hg0 mi
4:56 AM30 °FIce fog.33 mph96%29.33 "Hg0 mi
3:56 AM30 °FIce fog.32 mph100%29.35 "Hg1 mi
2:56 AM30 °FIce fog.33 mph96%29.39 "Hg0 mi
2:03 AM29 °FIce fog.33 mph96%29.43 "Hg0 mi
1:56 AM29 °FIce fog.33 mph100%29.44 "Hg1 mi
12:56 AM30 °FIce fog.30 mph96%29.49 "Hg0 mi
11:56 PM
Jan 26
30 °FIce fog.30 mph92%29.58 "Hg0 mi
10:56 PM30 °FIce fog.30 mph96%29.64 "Hg0 mi
9:56 PM31 °FSnow. Ice fog.23 mph96%29.71 "Hg1 mi
8:56 PM30 °FSnow. Ice fog.23 mph96%29.76 "Hg1 mi
7:56 PM30 °FLight snow. Ice fog.21 mph92%29.86 "Hg1 mi
6:56 PM30 °FSnow. Ice fog.20 mph92%29.90 "Hg1 mi
5:56 PM30 °FLight snow. Ice fog.17 mph92%29.93 "Hg1 mi
5:03 PM30 °FLight snow. Ice fog.12 mph89%29.94 "Hg1 mi
3:56 PM30 °FLight snow. Ice fog.12 mph89%29.96 "Hg1 mi
2:56 PM30 °FLight snow. Ice fog.12 mph89%29.97 "Hg1 mi
1:56 PM30 °FLight snow. Ice fog.10 mph89%29.98 "Hg1 mi
12:59 PM30 °FLight snow. Ice fog.10 mph82%29.99 "Hg1 mi
Weather by CustomWeather, © 2014

See weather overviewHow to use our weather pages